contact:dominique.lefevre@mio.osupytheas.fr, maurice.libes@osupytheas.fr, didier.mallarino@osupytheas.fr
Project:EMSO http://www.emso-fr.org/EMSO-France
Depth: 2436.0 m
Title:EMSO Ligure Ouest : Data MII capteur MICROCAT
DateTime_Computer,Latitude,Longitude,Temperature,Conductivity,Pressure,DateTime_Instrument
DateTime_Computer,Latitude,Longitude,degC,S m-1,dbar,DateTime_Instrument
2019-10-03T00:00:33Z,42.805,6.029,13.2961,4.59960,2469.923,2019-10-03T02:00:57Z
2019-10-03T00:03:36Z,42.805,6.029,13.2962,4.59961,2469.923,2019-10-03T02:04:01Z
2019-10-03T00:06:39Z,42.805,6.029,13.2954,4.59958,2469.937,2019-10-03T02:07:04Z
2019-10-03T00:09:42Z,42.805,6.029,13.2958,4.59955,2469.914,2019-10-03T02:10:07Z
2019-10-03T00:12:46Z,42.805,6.029,13.2957,4.59955,2469.89,2019-10-03T02:13:10Z
2019-10-03T00:15:49Z,42.805,6.029,13.2958,4.59955,2469.89,2019-10-03T02:16:13Z
2019-10-03T00:18:52Z,42.805,6.029,13.2956,4.59956,2469.923,2019-10-03T02:19:16Z
2019-10-03T00:21:55Z,42.805,6.029,13.2957,4.59957,2469.876,2019-10-03T02:22:20Z
2019-10-03T00:24:58Z,42.805,6.029,13.2955,4.59961,2469.923,2019-10-03T02:25:23Z
2019-10-03T00:28:02Z,42.805,6.029,13.2960,4.59956,2469.914,2019-10-03T02:28:26Z
2019-10-03T00:31:05Z,42.805,6.029,13.2958,4.59957,2469.914,2019-10-03T02:31:29Z
2019-10-03T00:34:08Z,42.805,6.029,13.2953,4.59956,2469.9,2019-10-03T02:34:32Z
2019-10-03T00:37:11Z,42.805,6.029,13.2956,4.59955,2469.867,2019-10-03T02:37:36Z
2019-10-03T00:40:14Z,42.805,6.029,13.2958,4.59956,2469.9,2019-10-03T02:40:39Z
2019-10-03T00:43:17Z,42.805,6.029,13.2957,4.59955,2469.876,2019-10-03T02:43:42Z
2019-10-03T00:46:21Z,42.805,6.029,13.2964,4.59954,2469.9,2019-10-03T02:46:45Z
2019-10-03T00:49:24Z,42.805,6.029,13.2959,4.59955,2469.937,2019-10-03T02:49:48Z
2019-10-03T00:52:27Z,42.805,6.029,13.2958,4.59955,2469.923,2019-10-03T02:52:51Z
2019-10-03T00:55:30Z,42.805,6.029,13.2964,4.59956,2469.867,2019-10-03T02:55:55Z
2019-10-03T00:58:34Z,42.805,6.029,13.2958,4.59956,2469.914,2019-10-03T02:58:58Z
2019-10-03T01:01:37Z,42.805,6.029,13.2957,4.59956,2469.867,2019-10-03T03:02:01Z
2019-10-03T01:04:40Z,42.805,6.029,13.2958,4.59956,2469.867,2019-10-03T03:05:04Z
2019-10-03T01:07:43Z,42.805,6.029,13.2963,4.59954,2469.867,2019-10-03T03:08:08Z
2019-10-03T01:10:46Z,42.805,6.029,13.2965,4.59955,2469.876,2019-10-03T03:11:11Z
2019-10-03T01:13:50Z,42.805,6.029,13.2958,4.59955,2469.937,2019-10-03T03:14:14Z
2019-10-03T01:16:53Z,42.805,6.029,13.2957,4.59954,2469.867,2019-10-03T03:17:17Z
2019-10-03T01:19:56Z,42.805,6.029,13.2956,4.59956,2469.876,2019-10-03T03:20:20Z
2019-10-03T01:22:59Z,42.805,6.029,13.2960,4.59970,2469.876,2019-10-03T03:23:24Z
2019-10-03T01:26:02Z,42.805,6.029,13.2957,4.59958,2469.853,2019-10-03T03:26:27Z
2019-10-03T01:29:05Z,42.805,6.029,13.2958,4.59957,2469.89,2019-10-03T03:29:30Z
2019-10-03T01:32:09Z,42.805,6.029,13.2957,4.59956,2469.853,2019-10-03T03:32:33Z
2019-10-03T01:35:12Z,42.805,6.029,13.2960,4.59956,2469.876,2019-10-03T03:35:36Z
2019-10-03T01:38:15Z,42.805,6.029,13.2957,4.59959,2469.9,2019-10-03T03:38:39Z
2019-10-03T01:41:18Z,42.805,6.029,13.2958,4.59956,2469.853,2019-10-03T03:41:43Z
2019-10-03T01:44:21Z,42.805,6.029,13.2965,4.59956,2469.876,2019-10-03T03:44:46Z
2019-10-03T01:47:25Z,42.805,6.029,13.2962,4.59955,2469.83,2019-10-03T03:47:49Z
2019-10-03T01:50:28Z,42.805,6.029,13.2961,4.59956,2469.83,2019-10-03T03:50:52Z
2019-10-03T01:53:31Z,42.805,6.029,13.2957,4.59963,2469.867,2019-10-03T03:53:55Z
2019-10-03T01:56:34Z,42.805,6.029,13.2961,4.59957,2469.83,2019-10-03T03:56:59Z
2019-10-03T01:59:37Z,42.805,6.029,13.2957,4.59958,2469.853,2019-10-03T04:00:02Z
2019-10-03T02:02:41Z,42.805,6.029,13.2958,4.59955,2469.844,2019-10-03T04:03:05Z
2019-10-03T02:05:44Z,42.805,6.029,13.2955,4.59956,2469.853,2019-10-03T04:06:08Z
2019-10-03T02:08:47Z,42.805,6.029,13.2957,4.59956,2469.867,2019-10-03T04:09:11Z
2019-10-03T02:11:50Z,42.805,6.029,13.2957,4.59955,2469.806,2019-10-03T04:12:15Z
2019-10-03T02:14:53Z,42.805,6.029,13.2957,4.59955,2469.83,2019-10-03T04:15:18Z
2019-10-03T02:17:57Z,42.805,6.029,13.2957,4.59955,2469.806,2019-10-03T04:18:21Z
2019-10-03T02:21:00Z,42.805,6.029,13.2959,4.59956,2469.844,2019-10-03T04:21:24Z
2019-10-03T02:24:03Z,42.805,6.029,13.2957,4.59960,2469.83,2019-10-03T04:24:27Z
2019-10-03T02:27:06Z,42.805,6.029,13.2957,4.59958,2469.806,2019-10-03T04:27:31Z
2019-10-03T02:30:09Z,42.805,6.029,13.2958,4.59955,2469.821,2019-10-03T04:30:34Z
2019-10-03T02:33:13Z,42.805,6.029,13.2961,4.59956,2469.806,2019-10-03T04:33:37Z
2019-10-03T02:36:16Z,42.805,6.029,13.2958,4.59965,2469.853,2019-10-03T04:36:40Z
2019-10-03T02:39:19Z,42.805,6.029,13.2960,4.59961,2469.806,2019-10-03T04:39:44Z
2019-10-03T02:42:22Z,42.805,6.029,13.2960,4.59956,2469.867,2019-10-03T04:42:47Z
2019-10-03T02:45:25Z,42.805,6.029,13.2958,4.59956,2469.821,2019-10-03T04:45:50Z
2019-10-03T02:48:29Z,42.805,6.029,13.2956,4.59955,2469.806,2019-10-03T04:48:53Z
2019-10-03T02:51:32Z,42.805,6.029,13.2962,4.59956,2469.83,2019-10-03T04:51:56Z
2019-10-03T02:54:35Z,42.805,6.029,13.2962,4.59956,2469.806,2019-10-03T04:55:00Z
2019-10-03T02:57:38Z,42.805,6.029,13.2958,4.59961,2469.806,2019-10-03T04:58:03Z
2019-10-03T03:00:41Z,42.805,6.029,13.2958,4.59963,2469.806,2019-10-03T05:01:06Z
2019-10-03T03:03:45Z,42.805,6.029,13.2957,4.59957,2469.853,2019-10-03T05:04:09Z
2019-10-03T03:06:48Z,42.805,6.029,13.2957,4.59956,2469.806,2019-10-03T05:07:12Z
2019-10-03T03:09:51Z,42.805,6.029,13.2957,4.59960,2469.83,2019-10-03T05:10:15Z
2019-10-03T03:12:54Z,42.805,6.029,13.2960,4.59958,2469.806,2019-10-03T05:13:19Z
2019-10-03T03:15:57Z,42.805,6.029,13.2958,4.59957,2469.844,2019-10-03T05:16:22Z
2019-10-03T03:19:01Z,42.805,6.029,13.2964,4.59959,2469.806,2019-10-03T05:19:25Z
2019-10-03T03:22:04Z,42.805,6.029,13.2959,4.59956,2469.773,2019-10-03T05:22:28Z
2019-10-03T03:25:07Z,42.805,6.029,13.2958,4.59956,2469.783,2019-10-03T05:25:31Z
2019-10-03T03:28:10Z,42.805,6.029,13.2959,4.59956,2469.783,2019-10-03T05:28:34Z
2019-10-03T03:31:13Z,42.805,6.029,13.2959,4.59956,2469.783,2019-10-03T05:31:38Z
2019-10-03T03:34:16Z,42.805,6.029,13.2960,4.59956,2469.797,2019-10-03T05:34:41Z
2019-10-03T03:37:20Z,42.805,6.029,13.2956,4.59958,2469.821,2019-10-03T05:37:44Z
2019-10-03T03:40:23Z,42.805,6.029,13.2966,4.59959,2469.783,2019-10-03T05:40:47Z
2019-10-03T03:43:26Z,42.805,6.029,13.2961,4.59970,2469.821,2019-10-03T05:43:51Z
2019-10-03T03:46:29Z,42.805,6.029,13.2958,4.59959,2469.783,2019-10-03T05:46:54Z
2019-10-03T03:49:32Z,42.805,6.029,13.2960,4.59960,2469.806,2019-10-03T05:49:57Z
2019-10-03T03:52:36Z,42.805,6.029,13.2954,4.59958,2469.83,2019-10-03T05:53:00Z
2019-10-03T03:55:39Z,42.805,6.029,13.2961,4.59958,2469.806,2019-10-03T05:56:03Z
2019-10-03T03:58:42Z,42.805,6.029,13.2963,4.59956,2469.773,2019-10-03T05:59:07Z
2019-10-03T04:01:45Z,42.805,6.029,13.2958,4.59957,2469.821,2019-10-03T06:02:10Z
2019-10-03T04:04:48Z,42.805,6.029,13.2958,4.59956,2469.783,2019-10-03T06:05:13Z
2019-10-03T04:07:52Z,42.805,6.029,13.2960,4.59956,2469.797,2019-10-03T06:08:16Z
2019-10-03T04:10:55Z,42.805,6.029,13.2960,4.59956,2469.783,2019-10-03T06:11:19Z
2019-10-03T04:13:58Z,42.805,6.029,13.2959,4.59958,2469.806,2019-10-03T06:14:22Z
2019-10-03T04:17:01Z,42.805,6.029,13.2958,4.59965,2469.797,2019-10-03T06:17:26Z
2019-10-03T04:20:04Z,42.805,6.029,13.2958,4.59958,2469.783,2019-10-03T06:20:29Z
2019-10-03T04:23:08Z,42.805,6.029,13.2958,4.59960,2469.797,2019-10-03T06:23:32Z
2019-10-03T04:26:11Z,42.805,6.029,13.2962,4.59958,2469.797,2019-10-03T06:26:35Z
2019-10-03T04:29:14Z,42.805,6.029,13.2964,4.59968,2469.783,2019-10-03T06:29:38Z
2019-10-03T04:32:17Z,42.805,6.029,13.2965,4.59958,2469.797,2019-10-03T06:32:42Z
2019-10-03T04:35:20Z,42.805,6.029,13.2958,4.59961,2469.806,2019-10-03T06:35:45Z
2019-10-03T04:38:24Z,42.805,6.029,13.2957,4.59958,2469.76,2019-10-03T06:38:48Z
2019-10-03T04:41:27Z,42.805,6.029,13.2958,4.59961,2469.773,2019-10-03T06:41:51Z
2019-10-03T04:44:30Z,42.805,6.029,13.2962,4.59961,2469.797,2019-10-03T06:44:54Z
2019-10-03T04:47:33Z,42.805,6.029,13.2959,4.59960,2469.773,2019-10-03T06:47:57Z
2019-10-03T04:50:36Z,42.805,6.029,13.2962,4.59958,2469.797,2019-10-03T06:51:01Z
2019-10-03T04:53:39Z,42.805,6.029,13.2968,4.59958,2469.76,2019-10-03T06:54:04Z
2019-10-03T04:56:43Z,42.805,6.029,13.2967,4.59958,2469.783,2019-10-03T06:57:07Z
2019-10-03T04:59:46Z,42.805,6.029,13.2971,4.59961,2469.797,2019-10-03T07:00:10Z
2019-10-03T05:02:49Z,42.805,6.029,13.2963,4.59958,2469.773,2019-10-03T07:03:13Z
2019-10-03T05:05:52Z,42.805,6.029,13.2962,4.59962,2469.75,2019-10-03T07:06:17Z
2019-10-03T05:08:55Z,42.805,6.029,13.2959,4.59966,2469.783,2019-10-03T07:09:20Z
2019-10-03T05:11:59Z,42.805,6.029,13.2962,4.59960,2469.773,2019-10-03T07:12:23Z
2019-10-03T05:15:02Z,42.805,6.029,13.2954,4.59962,2469.783,2019-10-03T07:15:26Z
2019-10-03T05:18:05Z,42.805,6.029,13.2957,4.59961,2469.797,2019-10-03T07:18:29Z
2019-10-03T05:21:08Z,42.805,6.029,13.2959,4.59960,2469.797,2019-10-03T07:21:32Z
2019-10-03T05:24:11Z,42.805,6.029,13.2959,4.59961,2469.806,2019-10-03T07:24:36Z
2019-10-03T05:27:15Z,42.805,6.029,13.2960,4.59963,2469.783,2019-10-03T07:27:39Z
2019-10-03T05:30:18Z,42.805,6.029,13.2955,4.59964,2469.783,2019-10-03T07:30:42Z
2019-10-03T05:33:21Z,42.805,6.029,13.2962,4.59959,2469.783,2019-10-03T07:33:45Z
2019-10-03T05:36:24Z,42.805,6.029,13.2957,4.59959,2469.821,2019-10-03T07:36:48Z
2019-10-03T05:39:27Z,42.805,6.029,13.2961,4.59961,2469.806,2019-10-03T07:39:52Z
2019-10-03T05:42:30Z,42.805,6.029,13.2961,4.59971,2469.76,2019-10-03T07:42:55Z
2019-10-03T05:45:34Z,42.805,6.029,13.2961,4.59979,2469.83,2019-10-03T07:45:58Z
2019-10-03T05:48:37Z,42.805,6.029,13.2957,4.59967,2469.783,2019-10-03T07:49:01Z
2019-10-03T05:51:40Z,42.805,6.029,13.2960,4.59973,2469.806,2019-10-03T07:52:05Z
2019-10-03T05:54:43Z,42.805,6.029,13.2957,4.59976,2469.783,2019-10-03T07:55:08Z
2019-10-03T05:57:46Z,42.805,6.029,13.2957,4.59971,2469.821,2019-10-03T07:58:11Z
2019-10-03T06:00:50Z,42.805,6.029,13.2959,4.59968,2469.821,2019-10-03T08:01:14Z
2019-10-03T06:03:53Z,42.805,6.029,13.2960,4.59971,2469.783,2019-10-03T08:04:17Z
2019-10-03T06:06:56Z,42.805,6.029,13.2957,4.59967,2469.783,2019-10-03T08:07:20Z
2019-10-03T06:09:59Z,42.805,6.029,13.2957,4.59968,2469.821,2019-10-03T08:10:24Z
2019-10-03T06:13:02Z,42.805,6.029,13.2958,4.59972,2469.844,2019-10-03T08:13:27Z
2019-10-03T06:16:05Z,42.805,6.029,13.2961,4.59966,2469.844,2019-10-03T08:16:30Z
2019-10-03T06:19:09Z,42.805,6.029,13.2964,4.59969,2469.821,2019-10-03T08:19:33Z
2019-10-03T06:22:12Z,42.805,6.029,13.2958,4.59967,2469.821,2019-10-03T08:22:36Z
2019-10-03T06:25:15Z,42.805,6.029,13.2958,4.59969,2469.806,2019-10-03T08:25:39Z
2019-10-03T06:28:18Z,42.805,6.029,13.2958,4.59975,2469.806,2019-10-03T08:28:43Z
2019-10-03T06:31:21Z,42.805,6.029,13.2958,4.59967,2469.821,2019-10-03T08:31:46Z
2019-10-03T06:34:25Z,42.805,6.029,13.2958,4.59973,2469.783,2019-10-03T08:34:49Z
2019-10-03T06:37:28Z,42.805,6.029,13.2958,4.59968,2469.844,2019-10-03T08:37:52Z
2019-10-03T06:40:31Z,42.805,6.029,13.2959,4.59975,2469.83,2019-10-03T08:40:55Z
2019-10-03T06:43:34Z,42.805,6.029,13.2962,4.59966,2469.844,2019-10-03T08:43:59Z
2019-10-03T06:46:37Z,42.805,6.029,13.2960,4.59964,2469.83,2019-10-03T08:47:02Z
2019-10-03T06:49:41Z,42.805,6.029,13.2960,4.59966,2469.853,2019-10-03T08:50:05Z
2019-10-03T06:52:44Z,42.805,6.029,13.2957,4.59966,2469.853,2019-10-03T08:53:08Z
2019-10-03T06:55:47Z,42.805,6.029,13.2957,4.59964,2469.83,2019-10-03T08:56:11Z
2019-10-03T06:58:50Z,42.805,6.029,13.2953,4.59967,2469.876,2019-10-03T08:59:15Z
2019-10-03T07:01:53Z,42.805,6.029,13.2953,4.59966,2469.853,2019-10-03T09:02:18Z
2019-10-03T07:04:56Z,42.805,6.029,13.2959,4.59972,2469.863,2019-10-03T09:05:21Z
2019-10-03T07:08:00Z,42.805,6.029,13.2961,4.59966,2469.853,2019-10-03T09:08:24Z
2019-10-03T07:11:03Z,42.805,6.029,13.2964,4.59964,2469.867,2019-10-03T09:11:27Z
2019-10-03T07:14:06Z,42.805,6.029,13.2961,4.59964,2469.853,2019-10-03T09:14:30Z
2019-10-03T07:17:09Z,42.805,6.029,13.2966,4.59966,2469.853,2019-10-03T09:17:34Z
2019-10-03T07:20:12Z,42.805,6.029,13.2958,4.59968,2469.89,2019-10-03T09:20:37Z
2019-10-03T07:23:16Z,42.805,6.029,13.2961,4.59965,2469.9,2019-10-03T09:23:40Z
2019-10-03T07:26:19Z,42.805,6.029,13.2958,4.59964,2469.89,2019-10-03T09:26:43Z
2019-10-03T07:29:22Z,42.805,6.029,13.2961,4.59966,2469.863,2019-10-03T09:29:46Z
2019-10-03T07:32:25Z,42.805,6.029,13.2958,4.59967,2469.89,2019-10-03T09:32:50Z
2019-10-03T07:35:28Z,42.805,6.029,13.2963,4.59961,2469.9,2019-10-03T09:35:53Z
2019-10-03T07:38:31Z,42.805,6.029,13.2958,4.59964,2469.9,2019-10-03T09:38:56Z
2019-10-03T07:41:35Z,42.805,6.029,13.2957,4.59962,2469.9,2019-10-03T09:41:59Z
2019-10-03T07:44:38Z,42.805,6.029,13.2958,4.59964,2469.914,2019-10-03T09:45:02Z
2019-10-03T07:47:41Z,42.805,6.029,13.2959,4.59961,2469.9,2019-10-03T09:48:06Z
2019-10-03T07:50:44Z,42.805,6.029,13.2959,4.59964,2469.9,2019-10-03T09:51:09Z
2019-10-03T07:53:47Z,42.805,6.029,13.2957,4.59961,2469.9,2019-10-03T09:54:12Z
2019-10-03T07:56:51Z,42.805,6.029,13.2958,4.59966,2469.914,2019-10-03T09:57:15Z
2019-10-03T07:59:54Z,42.805,6.029,13.2958,4.59965,2469.923,2019-10-03T10:00:18Z
2019-10-03T08:02:57Z,42.805,6.029,13.2958,4.59966,2469.914,2019-10-03T10:03:21Z
2019-10-03T08:06:00Z,42.805,6.029,13.2958,4.59966,2469.9,2019-10-03T10:06:25Z
2019-10-03T08:09:03Z,42.805,6.029,13.2959,4.59968,2469.9,2019-10-03T10:09:28Z
2019-10-03T08:12:07Z,42.805,6.029,13.2961,4.59964,2469.89,2019-10-03T10:12:31Z
2019-10-03T08:15:10Z,42.805,6.029,13.2960,4.59963,2469.9,2019-10-03T10:15:34Z
2019-10-03T08:18:13Z,42.805,6.029,13.2960,4.59964,2469.914,2019-10-03T10:18:37Z
2019-10-03T08:21:16Z,42.805,6.029,13.2958,4.59964,2469.96,2019-10-03T10:21:41Z
2019-10-03T08:24:19Z,42.805,6.029,13.2960,4.59965,2469.947,2019-10-03T10:24:44Z
2019-10-03T08:27:23Z,42.805,6.029,13.2962,4.59966,2469.923,2019-10-03T10:27:47Z
2019-10-03T08:30:26Z,42.805,6.029,13.2963,4.59964,2469.947,2019-10-03T10:30:50Z
2019-10-03T08:33:29Z,42.805,6.029,13.2961,4.59963,2469.923,2019-10-03T10:33:53Z
2019-10-03T08:36:32Z,42.805,6.029,13.2962,4.59966,2469.947,2019-10-03T10:36:57Z
2019-10-03T08:39:36Z,42.805,6.029,13.2961,4.59965,2469.937,2019-10-03T10:40:00Z
2019-10-03T08:42:39Z,42.805,6.029,13.2960,4.59966,2469.993,2019-10-03T10:43:03Z
2019-10-03T08:45:42Z,42.805,6.029,13.2958,4.59963,2469.97,2019-10-03T10:46:06Z
2019-10-03T08:48:45Z,42.805,6.029,13.2959,4.59963,2469.923,2019-10-03T10:49:10Z
2019-10-03T08:51:48Z,42.805,6.029,13.2961,4.59961,2469.947,2019-10-03T10:52:13Z
2019-10-03T08:54:52Z,42.805,6.029,13.2957,4.59964,2469.947,2019-10-03T10:55:16Z
2019-10-03T08:57:55Z,42.805,6.029,13.2958,4.59961,2469.947,2019-10-03T10:58:19Z
2019-10-03T09:00:58Z,42.805,6.029,13.2961,4.59964,2469.97,2019-10-03T11:01:22Z
2019-10-03T09:04:01Z,42.805,6.029,13.2959,4.59964,2469.947,2019-10-03T11:04:26Z
2019-10-03T09:07:04Z,42.805,6.029,13.2960,4.59964,2469.947,2019-10-03T11:07:29Z
2019-10-03T09:10:08Z,42.805,6.029,13.2958,4.59963,2469.947,2019-10-03T11:10:32Z
2019-10-03T09:13:11Z,42.805,6.029,13.2957,4.59964,2469.993,2019-10-03T11:13:35Z
2019-10-03T09:16:14Z,42.805,6.029,13.2958,4.59961,2469.96,2019-10-03T11:16:38Z
2019-10-03T09:19:17Z,42.805,6.029,13.2961,4.59960,2469.984,2019-10-03T11:19:42Z
2019-10-03T09:22:20Z,42.805,6.029,13.2962,4.59964,2469.984,2019-10-03T11:22:45Z
2019-10-03T09:25:24Z,42.805,6.029,13.2959,4.59960,2469.993,2019-10-03T11:25:48Z
2019-10-03T09:28:27Z,42.805,6.029,13.2963,4.59959,2470.03,2019-10-03T11:28:51Z
2019-10-03T09:31:30Z,42.805,6.029,13.2958,4.59959,2469.984,2019-10-03T11:31:54Z
2019-10-03T09:34:33Z,42.805,6.029,13.2965,4.59966,2470.03,2019-10-03T11:34:58Z
2019-10-03T09:37:36Z,42.805,6.029,13.2959,4.59960,2469.984,2019-10-03T11:38:01Z
2019-10-03T09:40:39Z,42.805,6.029,13.2962,4.59962,2469.984,2019-10-03T11:41:04Z
2019-10-03T09:43:43Z,42.805,6.029,13.2961,4.59964,2469.97,2019-10-03T11:44:07Z
2019-10-03T09:46:46Z,42.805,6.029,13.2959,4.59960,2469.984,2019-10-03T11:47:10Z
2019-10-03T09:49:49Z,42.805,6.029,13.2960,4.59960,2469.993,2019-10-03T11:50:13Z
2019-10-03T09:52:52Z,42.805,6.029,13.2963,4.59961,2469.993,2019-10-03T11:53:17Z
2019-10-03T09:55:56Z,42.805,6.029,13.2960,4.59958,2469.984,2019-10-03T11:56:20Z
2019-10-03T09:58:59Z,42.805,6.029,13.2958,4.59959,2470.007,2019-10-03T11:59:23Z
2019-10-03T10:02:02Z,42.805,6.029,13.2959,4.59963,2469.97,2019-10-03T12:02:26Z
2019-10-03T10:05:05Z,42.805,6.029,13.2961,4.59961,2469.993,2019-10-03T12:05:30Z
2019-10-03T10:08:08Z,42.805,6.029,13.2958,4.59961,2469.96,2019-10-03T12:08:33Z
2019-10-03T10:11:11Z,42.805,6.029,13.2961,4.59960,2469.993,2019-10-03T12:11:36Z
2019-10-03T10:14:15Z,42.805,6.029,13.2963,4.59958,2469.984,2019-10-03T12:14:39Z
2019-10-03T10:17:18Z,42.805,6.029,13.2967,4.59958,2469.984,2019-10-03T12:17:42Z
2019-10-03T10:20:21Z,42.805,6.029,13.2965,4.59959,2470.007,2019-10-03T12:20:45Z
2019-10-03T10:23:24Z,42.805,6.029,13.2959,4.59961,2469.984,2019-10-03T12:23:49Z
2019-10-03T10:26:27Z,42.805,6.029,13.2960,4.59960,2469.984,2019-10-03T12:26:52Z
2019-10-03T10:29:30Z,42.805,6.029,13.2960,4.59964,2469.947,2019-10-03T12:29:55Z
2019-10-03T10:32:34Z,42.805,6.029,13.2963,4.59963,2469.97,2019-10-03T12:32:58Z
2019-10-03T10:36:06Z,42.805,6.029,13.2959,4.59957,2469.984,2019-10-03T12:36:01Z
2019-10-03T10:38:41Z,42.805,6.029,13.2963,4.59961,2469.984,2019-10-03T12:39:06Z
2019-10-03T10:41:44Z,42.805,6.029,13.2958,4.59958,2469.97,2019-10-03T12:42:09Z
2019-10-03T10:44:48Z,42.805,6.029,13.2958,4.59958,2469.947,2019-10-03T12:45:12Z
2019-10-03T10:47:51Z,42.805,6.029,13.2961,4.59958,2469.947,2019-10-03T12:48:15Z
2019-10-03T10:50:54Z,42.805,6.029,13.2962,4.59958,2469.993,2019-10-03T12:51:18Z
2019-10-03T10:53:57Z,42.805,6.029,13.2961,4.59961,2469.947,2019-10-03T12:54:22Z
2019-10-03T10:57:00Z,42.805,6.029,13.2964,4.59958,2469.97,2019-10-03T12:57:25Z
2019-10-03T11:00:03Z,42.805,6.029,13.2962,4.59958,2469.947,2019-10-03T13:00:28Z
2019-10-03T11:03:07Z,42.805,6.029,13.2959,4.59958,2470.007,2019-10-03T13:03:31Z
2019-10-03T11:06:10Z,42.805,6.029,13.2966,4.59961,2469.97,2019-10-03T13:06:34Z
2019-10-03T11:09:13Z,42.805,6.029,13.2961,4.59960,2469.97,2019-10-03T13:09:38Z
2019-10-03T11:12:16Z,42.805,6.029,13.2958,4.59960,2469.97,2019-10-03T13:12:41Z
2019-10-03T11:15:19Z,42.805,6.029,13.2959,4.59964,2470.007,2019-10-03T13:15:44Z
2019-10-03T11:18:23Z,42.805,6.029,13.2963,4.59957,2469.947,2019-10-03T13:18:47Z
2019-10-03T11:21:26Z,42.805,6.029,13.2958,4.59959,2469.984,2019-10-03T13:21:50Z
2019-10-03T11:24:29Z,42.805,6.029,13.2958,4.59958,2470.007,2019-10-03T13:24:54Z
2019-10-03T11:27:32Z,42.805,6.029,13.2962,4.59961,2469.97,2019-10-03T13:27:57Z
2019-10-03T11:30:36Z,42.805,6.029,13.2961,4.59963,2469.984,2019-10-03T13:31:00Z
2019-10-03T11:33:39Z,42.805,6.029,13.2958,4.59956,2469.947,2019-10-03T13:34:04Z
2019-10-03T11:36:42Z,42.805,6.029,13.2959,4.59957,2469.96,2019-10-03T13:37:07Z
2019-10-03T11:39:45Z,42.805,6.029,13.2963,4.59964,2469.937,2019-10-03T13:40:10Z
2019-10-03T11:42:49Z,42.805,6.029,13.2957,4.59956,2469.984,2019-10-03T13:43:13Z
2019-10-03T11:45:52Z,42.805,6.029,13.2957,4.59957,2469.984,2019-10-03T13:46:16Z
2019-10-03T11:48:55Z,42.805,6.029,13.2958,4.59957,2469.97,2019-10-03T13:49:19Z
2019-10-03T11:51:58Z,42.805,6.029,13.2958,4.59960,2469.96,2019-10-03T13:52:23Z
2019-10-03T11:55:01Z,42.805,6.029,13.2958,4.59957,2469.96,2019-10-03T13:55:26Z
2019-10-03T11:58:05Z,42.805,6.029,13.2961,4.59957,2469.923,2019-10-03T13:58:29Z
2019-10-03T12:01:08Z,42.805,6.029,13.2964,4.59958,2469.947,2019-10-03T14:01:32Z
2019-10-03T12:04:11Z,42.805,6.029,13.2958,4.59957,2469.947,2019-10-03T14:04:35Z
2019-10-03T12:07:14Z,42.805,6.029,13.2960,4.59957,2469.97,2019-10-03T14:07:39Z
2019-10-03T12:10:17Z,42.805,6.029,13.2961,4.59958,2469.96,2019-10-03T14:10:42Z
2019-10-03T12:13:20Z,42.805,6.029,13.2962,4.59958,2469.947,2019-10-03T14:13:45Z
2019-10-03T12:16:24Z,42.805,6.029,13.2958,4.59956,2469.96,2019-10-03T14:16:48Z
2019-10-03T12:19:27Z,42.805,6.029,13.2960,4.59957,2469.923,2019-10-03T14:19:51Z
2019-10-03T12:22:30Z,42.805,6.029,13.2958,4.59958,2469.947,2019-10-03T14:22:54Z
2019-10-03T12:25:33Z,42.805,6.029,13.2957,4.59957,2469.947,2019-10-03T14:25:58Z
2019-10-03T12:28:36Z,42.805,6.029,13.2960,4.59957,2469.923,2019-10-03T14:29:01Z
2019-10-03T12:31:40Z,42.805,6.029,13.2964,4.59958,2469.947,2019-10-03T14:32:04Z
2019-10-03T12:34:43Z,42.805,6.029,13.2957,4.59956,2469.947,2019-10-03T14:35:07Z
2019-10-03T12:37:46Z,42.805,6.029,13.2960,4.59958,2469.947,2019-10-03T14:38:10Z
2019-10-03T12:40:49Z,42.805,6.029,13.2958,4.59956,2469.923,2019-10-03T14:41:14Z
2019-10-03T12:43:52Z,42.805,6.029,13.2959,4.59957,2469.923,2019-10-03T14:44:17Z
2019-10-03T12:46:56Z,42.805,6.029,13.2957,4.59956,2469.9,2019-10-03T14:47:20Z
2019-10-03T12:49:59Z,42.805,6.029,13.2958,4.59956,2469.914,2019-10-03T14:50:23Z
2019-10-03T12:53:02Z,42.805,6.029,13.2958,4.59957,2469.923,2019-10-03T14:53:26Z
2019-10-03T12:56:05Z,42.805,6.029,13.2961,4.59957,2469.937,2019-10-03T14:56:29Z
2019-10-03T12:59:08Z,42.805,6.029,13.2956,4.59956,2469.923,2019-10-03T14:59:33Z
2019-10-03T13:02:11Z,42.805,6.029,13.2958,4.59956,2469.9,2019-10-03T15:02:36Z
2019-10-03T13:05:15Z,42.805,6.029,13.2961,4.59960,2469.96,2019-10-03T15:05:39Z
2019-10-03T13:08:18Z,42.805,6.029,13.2957,4.59959,2469.937,2019-10-03T15:08:42Z
2019-10-03T13:11:21Z,42.805,6.029,13.2961,4.59957,2469.9,2019-10-03T15:11:45Z
2019-10-03T13:14:24Z,42.805,6.029,13.2957,4.59956,2469.9,2019-10-03T15:14:49Z
2019-10-03T13:17:27Z,42.805,6.029,13.2957,4.59957,2469.914,2019-10-03T15:17:52Z
2019-10-03T13:20:31Z,42.805,6.029,13.2957,4.59958,2469.886,2019-10-03T15:20:55Z
2019-10-03T13:23:34Z,42.805,6.029,13.2958,4.59957,2469.923,2019-10-03T15:23:58Z
2019-10-03T13:26:37Z,42.805,6.029,13.2955,4.59957,2469.914,2019-10-03T15:27:01Z
2019-10-03T13:29:40Z,42.805,6.029,13.2961,4.59956,2469.947,2019-10-03T15:30:05Z
2019-10-03T13:32:43Z,42.805,6.029,13.2959,4.59956,2469.923,2019-10-03T15:33:08Z
2019-10-03T13:35:47Z,42.805,6.029,13.2959,4.59957,2469.89,2019-10-03T15:36:11Z
2019-10-03T13:38:50Z,42.805,6.029,13.2955,4.59956,2469.923,2019-10-03T15:39:14Z
2019-10-03T13:41:53Z,42.805,6.029,13.2958,4.59956,2469.923,2019-10-03T15:42:17Z
2019-10-03T13:44:56Z,42.805,6.029,13.2953,4.59956,2469.9,2019-10-03T15:45:21Z
2019-10-03T13:47:59Z,42.805,6.029,13.2957,4.59956,2469.914,2019-10-03T15:48:24Z
2019-10-03T13:51:03Z,42.805,6.029,13.2958,4.59960,2469.876,2019-10-03T15:51:27Z
2019-10-03T13:54:06Z,42.805,6.029,13.2955,4.59956,2469.923,2019-10-03T15:54:30Z
2019-10-03T13:57:09Z,42.805,6.029,13.2956,4.59957,2469.9,2019-10-03T15:57:34Z
2019-10-03T14:00:12Z,42.805,6.029,13.2960,4.59955,2469.853,2019-10-03T16:00:37Z
2019-10-03T14:03:15Z,42.805,6.029,13.2958,4.59956,2469.923,2019-10-03T16:03:40Z
2019-10-03T14:06:19Z,42.805,6.029,13.2960,4.59958,2469.89,2019-10-03T16:06:43Z
2019-10-03T14:09:22Z,42.805,6.029,13.2961,4.59958,2469.89,2019-10-03T16:09:46Z
2019-10-03T14:12:25Z,42.805,6.029,13.2958,4.59963,2469.89,2019-10-03T16:12:49Z
2019-10-03T14:15:28Z,42.805,6.029,13.2961,4.59957,2469.9,2019-10-03T16:15:53Z
2019-10-03T14:18:31Z,42.805,6.029,13.2957,4.59957,2469.9,2019-10-03T16:18:56Z
2019-10-03T14:21:35Z,42.805,6.029,13.2957,4.59956,2469.914,2019-10-03T16:21:59Z
2019-10-03T14:24:38Z,42.805,6.029,13.2957,4.59958,2469.9,2019-10-03T16:25:02Z
2019-10-03T14:27:41Z,42.805,6.029,13.2957,4.59956,2469.853,2019-10-03T16:28:05Z
2019-10-03T14:30:44Z,42.805,6.029,13.2956,4.59956,2469.89,2019-10-03T16:31:09Z
2019-10-03T14:33:47Z,42.805,6.029,13.2958,4.59956,2469.876,2019-10-03T16:34:12Z
2019-10-03T14:36:51Z,42.805,6.029,13.2956,4.59956,2469.89,2019-10-03T16:37:15Z
2019-10-03T14:39:54Z,42.805,6.029,13.2953,4.59957,2469.937,2019-10-03T16:40:18Z
2019-10-03T14:42:57Z,42.805,6.029,13.2958,4.59956,2469.89,2019-10-03T16:43:21Z
2019-10-03T14:46:00Z,42.805,6.029,13.2955,4.59956,2469.9,2019-10-03T16:46:25Z
2019-10-03T14:49:03Z,42.805,6.029,13.2958,4.59956,2469.876,2019-10-03T16:49:28Z
2019-10-03T14:52:06Z,42.805,6.029,13.2953,4.59956,2469.89,2019-10-03T16:52:31Z
2019-10-03T14:55:10Z,42.805,6.029,13.2958,4.59956,2469.876,2019-10-03T16:55:34Z
2019-10-03T14:58:13Z,42.805,6.029,13.2958,4.59956,2469.876,2019-10-03T16:58:37Z
2019-10-03T15:01:16Z,42.805,6.029,13.2958,4.59958,2469.914,2019-10-03T17:01:41Z